Flag for United Kingdom Weather past 2 weeks in Nottingham, England, United Kingdom

Now
41 °F

Scattered showers. Scattered clouds.


Feels Like: 30 °F
Forecast: N/A
Wind: 31 mph from West

Location: East Midlands

Current Time: Jan 28, 2015 at 2:58:05 PM

Latest Report: Jan 28, 2015 at 2:20 PM


Visibility: N/A

Pressure: 29.47 "Hg

Humidity: 66%

Dew point: 30 °F

Location of NottinghamLocation

Historic Weather in Nottingham — Graph

°F

Nottingham temperature yesterday

Maximum temperature yesterday: 46 °F (at 1:50 PM)
Minimum temperature yesterday: 37 °F (at 12:20 AM)
Average temperature yesterday: 42 °F

Past Weeks' High & Low Weather Summary

 TemperatureHumidityPressure
High50 °F (Jan 15, 1:20 AM)100% (Jan 13, 11:20 PM)30.42 "Hg (Jan 13, 11:20 PM)
Low25 °F (Jan 19, 6:20 AM)65% (Jan 20, 2:50 PM)28.91 "Hg (Jan 15, 1:20 AM)
Average38 °F86%29.88 "Hg
* Reported Jan 13 1:20 PM — Jan 28 1:50 PM, Nottingham, Weather by CustomWeather, © 2014

Note: Actual official high and low records may vary slightly from our data, if they occured in-between our weather recording intervals... More about our weather records

Advertising

Nottingham weather history for previous 24 hours

 ConditionsComfort  
Time TempWeatherWind HumidityBarometerVisibility
1:50 PM
Jan 28
41 °FScattered showers. Scattered clouds.18 mph70%29.47 "HgN/A
1:20 PM41 °FScattered showers. Scattered clouds.26 mph66%29.47 "HgN/A
12:50 PM39 °FRain showers. Scattered clouds.31 mph75%29.47 "HgN/A
12:20 PM39 °FScattered clouds.24 mph75%29.47 "HgN/A
11:50 AM39 °FScattered clouds.21 mph87%29.47 "HgN/A
11:20 AM41 °FSprinkles. Broken clouds.31 mph81%29.47 "HgN/A
10:50 AM43 °FScattered clouds.25 mph76%29.45 "HgN/A
8:50 AM46 °FScattered clouds.22 mph93%29.45 "HgN/A
8:20 AM46 °FLight rain. Partly sunny.25 mph93%29.45 "Hg3 mi
7:50 AM48 °FScattered showers. Passing clouds.28 mph87%29.47 "HgN/A
7:20 AM46 °FPassing clouds.24 mph93%29.50 "HgN/A
6:20 AM46 °FPartly cloudy.23 mph87%29.59 "HgN/A
5:50 AM45 °FPassing clouds.21 mph93%29.62 "HgN/A
5:20 AM45 °FPassing clouds.21 mph93%29.65 "HgN/A
4:50 AM45 °FPassing clouds.23 mph87%29.68 "HgN/A
4:20 AM45 °FPassing clouds.22 mph87%29.71 "HgN/A
3:50 AM43 °FPassing clouds.18 mph93%29.74 "HgN/A
3:20 AM43 °FPassing clouds.21 mph87%29.80 "HgN/A
2:50 AM45 °FPassing clouds.16 mph81%29.83 "HgN/A
2:20 AM43 °FPassing clouds.15 mph87%29.86 "HgN/A
1:50 AM43 °FPassing clouds.15 mph87%29.89 "HgN/A
1:20 AM43 °FPassing clouds.14 mph87%29.92 "HgN/A
12:50 AM43 °FPassing clouds.14 mph87%29.92 "HgN/A
12:20 AM43 °FPassing clouds.14 mph87%29.95 "HgN/A
11:50 PM
Jan 27
43 °FPassing clouds.15 mph81%29.98 "HgN/A
11:20 PM43 °FPassing clouds.15 mph81%30.01 "HgN/A
10:50 PM43 °FPassing clouds.15 mph81%30.04 "HgN/A
10:20 PM43 °FPassing clouds.12 mph81%30.01 "HgN/A
9:50 PM43 °FPassing clouds.10 mph81%30.07 "HgN/A
9:20 PM43 °FPassing clouds.15 mph81%30.07 "HgN/A
8:50 PM43 °FPassing clouds.14 mph81%30.09 "HgN/A
8:20 PM43 °FPassing clouds.17 mph81%30.12 "HgN/A
7:50 PM43 °FPassing clouds.15 mph81%30.15 "HgN/A
7:20 PM43 °FPassing clouds.13 mph81%30.15 "HgN/A
6:50 PM43 °FPassing clouds.15 mph81%30.15 "HgN/A
6:20 PM45 °FPassing clouds.14 mph76%30.18 "HgN/A
5:50 PM45 °FPassing clouds.14 mph76%30.18 "HgN/A
5:20 PM45 °FPassing clouds.14 mph76%30.18 "HgN/A
4:50 PM45 °FPassing clouds.12 mph76%30.21 "HgN/A
4:20 PM45 °FPartly sunny.12 mph76%30.18 "HgN/A
3:50 PM45 °FPartly sunny.13 mph76%30.21 "HgN/A
3:20 PM46 °FBroken clouds.15 mph76%30.21 "HgN/A
2:50 PM46 °FBroken clouds.14 mph82%30.24 "HgN/A
2:20 PM46 °FPartly sunny.14 mph82%30.24 "HgN/A
Weather by CustomWeather, © 2014

See weather overviewHow to use our weather pages